| Project: | INFOMAR |
| Instrument: | Simrad EM3002d |
| All Bathy/Relief | Coastal | DEM Portal | Fishing | Global | Lakes | Multibeam | NOS |
| Ship Name: | Keary |
| Chief Scientist: | Cullen, Sean |
| Source Organization: | Geological Survey of Ireland (GSI) |
| Start Date: | 2011-06-21 |
| End Date: | 2011-06-29 |
Multibeam Bathymetry

| Project: | INFOMAR |
| Instrument: | Simrad EM3002d |

| Number of Files: | 197 |
| Number of Records: | 2372073 |
| BATHYMETRY DATA | Quantity | Percentage |
|---|---|---|
| Number of Beams | 1203707036 | 100% |
| Number of Good Beams | 1202832365 | 99.93% |
| Number of Zero Beams | 874671 | 0.07% |
| Number of Flagged Beams | 0 | 0% |

| Total Time: | 34.52 hours |
| Total Track Length: | 470.1023 km |
| Average Speed: | 13.618 km/hr (7.3531 knots) |

| Northern Extent: | 52.3382 |
| Southern Extent: | 52.2403 |
| Western Extent: | -6.3524 |
| Eastern Extent: | -6.2559 |

| Minimum Sonar Depth | 0.87 | Maximum Sonar Depth | 2.4 |
| Minimum Altitude | 2.58 | Maximum Altitude | 32.28 |
| Minimum Depth | 1.76 | Maximum Depth | 40.72 |
File Information

| Files | File Size | Description |
|---|---|---|
| 0000_20110621_082001_Keary.all.mb56.gz | 110.46MB | Simrad multibeam vendor format |
| 0000_20110622_054627_Keary.all.mb56.gz | 2.23MB | Simrad multibeam vendor format |
| 0001_20110621_082630_Keary.all.mb56.gz | 447.95MB | Simrad multibeam vendor format |
| 0002_20110621_090739_Keary.all.mb56.gz | 10.01MB | Simrad multibeam vendor format |
| 0003_20110621_092412_Keary.all.mb56.gz | 276.41MB | Simrad multibeam vendor format |
| 0004_20110621_095435_Keary.all.mb56.gz | 455.15MB | Simrad multibeam vendor format |
| 0005_20110621_102838_Keary.all.mb56.gz | 321.53MB | Simrad multibeam vendor format |
| 0006_20110621_105114_Keary.all.mb56.gz | 342.81MB | Simrad multibeam vendor format |
| 0007_20110621_112425_Keary.all.mb56.gz | 170.54MB | Simrad multibeam vendor format |
| 0007_20110621_113946_Keary.all.mb56.gz | 107.75MB | Simrad multibeam vendor format |
| 0008_20110621_115652_Keary.all.mb56.gz | 344.92MB | Simrad multibeam vendor format |
| 0009_20110621_141217_Keary.all.mb56.gz | 53.20MB | Simrad multibeam vendor format |
| 0009_20110621_141436_Keary.all.mb56.gz | 65.45MB | Simrad multibeam vendor format |
| 0009_20110621_141824_Keary.all.mb56.gz | 58.89MB | Simrad multibeam vendor format |
| 0009_20110621_142634_Keary.all.mb56.gz | 70.39MB | Simrad multibeam vendor format |
| 0009_20110621_143020_Keary.all.mb56.gz | 56.33MB | Simrad multibeam vendor format |
| 0009_20110621_143410_Keary.all.mb56.gz | 44.44MB | Simrad multibeam vendor format |
| 0009_20110621_143625_Keary.all.mb56.gz | 20.61MB | Simrad multibeam vendor format |
| 0009_20110621_143739_Keary.all.mb56.gz | 44.81MB | Simrad multibeam vendor format |
| 0009_20110621_144134_Keary.all.mb56.gz | 37.70MB | Simrad multibeam vendor format |
| 0009_20110621_144425_Keary.all.mb56.gz | 39.39MB | Simrad multibeam vendor format |
| 0009_20110621_144805_Keary.all.mb56.gz | 38.46MB | Simrad multibeam vendor format |
| 0009_20110621_145204_Keary.all.mb56.gz | 55.96MB | Simrad multibeam vendor format |
| 0009_20110621_145604_Keary.all.mb56.gz | 61.77MB | Simrad multibeam vendor format |
| 0009_20110621_145953_Keary.all.mb56.gz | 53.32MB | Simrad multibeam vendor format |
| 0009_20110621_150258_Keary.all.mb56.gz | 56.02MB | Simrad multibeam vendor format |
| 0010_20110621_151237_Keary.all.mb56.gz | 54.26MB | Simrad multibeam vendor format |
| 0010_20110621_151640_Keary.all.mb56.gz | 50.36MB | Simrad multibeam vendor format |
| 0010_20110621_152116_Keary.all.mb56.gz | 57.82MB | Simrad multibeam vendor format |
| 0010_20110621_152453_Keary.all.mb56.gz | 50.91MB | Simrad multibeam vendor format |
| 0010_20110621_152928_Keary.all.mb56.gz | 59.27MB | Simrad multibeam vendor format |
| 0010_20110621_153404_Keary.all.mb56.gz | 64.15MB | Simrad multibeam vendor format |
| 0010_20110621_153746_Keary.all.mb56.gz | 30.29MB | Simrad multibeam vendor format |
| 0010_20110621_154005_Keary.all.mb56.gz | 21.02MB | Simrad multibeam vendor format |
| 0010_20110621_154219_Keary.all.mb56.gz | 16.81MB | Simrad multibeam vendor format |
| 0011_20110621_155509_Keary.all.mb56.gz | 147.66MB | Simrad multibeam vendor format |
| 0012_20110621_161502_Keary.all.mb56.gz | 153.18MB | Simrad multibeam vendor format |
| 0013_20110621_162600_Keary.all.mb56.gz | 176.08MB | Simrad multibeam vendor format |
| 0014_20110621_163900_Keary.all.mb56.gz | 133.53MB | Simrad multibeam vendor format |
| 0015_20110622_080227_Keary.all.mb56.gz | 409.46MB | Simrad multibeam vendor format |
| 0016_20110622_083402_Keary.all.mb56.gz | 381.04MB | Simrad multibeam vendor format |
| 0017_20110622_090119_Keary.all.mb56.gz | 344.98MB | Simrad multibeam vendor format |
| 0018_20110622_092547_Keary.all.mb56.gz | 389.09MB | Simrad multibeam vendor format |
| 0019_20110622_095342_Keary.all.mb56.gz | 310.19MB | Simrad multibeam vendor format |
| 0020_20110622_101621_Keary.all.mb56.gz | 50.11MB | Simrad multibeam vendor format |
| 0021_20110625_143806_Keary.all.mb56.gz | 197.11MB | Simrad multibeam vendor format |
| 0022_20110625_145553_Keary.all.mb56.gz | 68.65MB | Simrad multibeam vendor format |
| 0023_20110625_150243_Keary.all.mb56.gz | 175.22MB | Simrad multibeam vendor format |
| 0024_20110625_151131_Keary.all.mb56.gz | 178.02MB | Simrad multibeam vendor format |
| 0025_20110625_152002_Keary.all.mb56.gz | 187.40MB | Simrad multibeam vendor format |
| 0026_20110625_153707_Keary.all.mb56.gz | 204.01MB | Simrad multibeam vendor format |
| 0027_20110625_155130_Keary.all.mb56.gz | 192.40MB | Simrad multibeam vendor format |
| 0028_20110625_160019_Keary.all.mb56.gz | 243.57MB | Simrad multibeam vendor format |
| 0029_20110625_161120_Keary.all.mb56.gz | 223.33MB | Simrad multibeam vendor format |
| 0030_20110625_162132_Keary.all.mb56.gz | 236.53MB | Simrad multibeam vendor format |
| 0031_20110625_163417_Keary.all.mb56.gz | 215.12MB | Simrad multibeam vendor format |
| 0032_20110625_171318_Keary.all.mb56.gz | 64.71MB | Simrad multibeam vendor format |
| 0033_20110625_172222_Keary.all.mb56.gz | 156.92MB | Simrad multibeam vendor format |
| 0034_20110625_173253_Keary.all.mb56.gz | 214.21MB | Simrad multibeam vendor format |
| 0035_20110625_174240_Keary.all.mb56.gz | 241.63MB | Simrad multibeam vendor format |
| 0036_20110625_180155_Keary.all.mb56.gz | 149.04MB | Simrad multibeam vendor format |
| 0037_20110625_181207_Keary.all.mb56.gz | 114.77MB | Simrad multibeam vendor format |
| 0038_20110625_181656_Keary.all.mb56.gz | 280.31MB | Simrad multibeam vendor format |
| 0039_20110625_182832_Keary.all.mb56.gz | 265.04MB | Simrad multibeam vendor format |
| 0040_20110626_085605_Keary.all.mb56.gz | 428.09MB | Simrad multibeam vendor format |
| 0041_20110626_092432_Keary.all.mb56.gz | 341.65MB | Simrad multibeam vendor format |
| 0042_20110626_094759_Keary.all.mb56.gz | 400.38MB | Simrad multibeam vendor format |
| 0043_20110626_101702_Keary.all.mb56.gz | 364.04MB | Simrad multibeam vendor format |
| 0044_20110626_104235_Keary.all.mb56.gz | 388.67MB | Simrad multibeam vendor format |
| 0045_20110626_111042_Keary.all.mb56.gz | 418.24MB | Simrad multibeam vendor format |
| 0046_20110626_114041_Keary.all.mb56.gz | 358.84MB | Simrad multibeam vendor format |
| 0047_20110626_120639_Keary.all.mb56.gz | 448.32MB | Simrad multibeam vendor format |
| 0048_20110626_123906_Keary.all.mb56.gz | 355.87MB | Simrad multibeam vendor format |
| 0049_20110626_130257_Keary.all.mb56.gz | 402.35MB | Simrad multibeam vendor format |
| 0050_20110626_132457_Keary.all.mb56.gz | 305.51MB | Simrad multibeam vendor format |
| 0051_20110626_134525_Keary.all.mb56.gz | 394.18MB | Simrad multibeam vendor format |
| 0052_20110626_141837_Keary.all.mb56.gz | 167.42MB | Simrad multibeam vendor format |
| 0053_20110626_143444_Keary.all.mb56.gz | 197.25MB | Simrad multibeam vendor format |
| 0054_20110626_144423_Keary.all.mb56.gz | 135.81MB | Simrad multibeam vendor format |
| 0055_20110626_145308_Keary.all.mb56.gz | 174.61MB | Simrad multibeam vendor format |
| 0056_20110626_150117_Keary.all.mb56.gz | 112.07MB | Simrad multibeam vendor format |
| 0057_20110626_150847_Keary.all.mb56.gz | 121.67MB | Simrad multibeam vendor format |
| 0058_20110626_151847_Keary.all.mb56.gz | 85.75MB | Simrad multibeam vendor format |
| 0059_20110626_152352_Keary.all.mb56.gz | 99.81MB | Simrad multibeam vendor format |
| 0060_20110626_152846_Keary.all.mb56.gz | 74.25MB | Simrad multibeam vendor format |
| 0061_20110626_153318_Keary.all.mb56.gz | 71.98MB | Simrad multibeam vendor format |
| 0062_20110626_153625_Keary.all.mb56.gz | 44.20MB | Simrad multibeam vendor format |
| 0063_20110626_153934_Keary.all.mb56.gz | 56.44MB | Simrad multibeam vendor format |
| 0064_20110626_154302_Keary.all.mb56.gz | 34.51MB | Simrad multibeam vendor format |
| 0064_20110626_154616_Keary.all.mb56.gz | 24.54MB | Simrad multibeam vendor format |
| 0064_20110626_154744_Keary.all.mb56.gz | 43.32MB | Simrad multibeam vendor format |
| 0064_20110626_155015_Keary.all.mb56.gz | 14.23MB | Simrad multibeam vendor format |
| 0064_20110626_155155_Keary.all.mb56.gz | 45.70MB | Simrad multibeam vendor format |
| 0064_20110626_155528_Keary.all.mb56.gz | 39.51MB | Simrad multibeam vendor format |
| 0064_20110626_155808_Keary.all.mb56.gz | 11.03MB | Simrad multibeam vendor format |
| 0064_20110626_160021_Keary.all.mb56.gz | 26.24MB | Simrad multibeam vendor format |
| 0065_20110626_161122_Keary.all.mb56.gz | 386.72MB | Simrad multibeam vendor format |
| 0066_20110626_163138_Keary.all.mb56.gz | 321.46MB | Simrad multibeam vendor format |
| 0067_20110626_165700_Keary.all.mb56.gz | 309.96MB | Simrad multibeam vendor format |
| 0068_20110626_171623_Keary.all.mb56.gz | 309.49MB | Simrad multibeam vendor format |
| 0069_20110626_173735_Keary.all.mb56.gz | 294.54MB | Simrad multibeam vendor format |
| 0070_20110626_180005_Keary.all.mb56.gz | 333.25MB | Simrad multibeam vendor format |
| 0071_20110626_184433_Keary.all.mb56.gz | 335.22MB | Simrad multibeam vendor format |
| 0072_20110626_190726_Keary.all.mb56.gz | 316.28MB | Simrad multibeam vendor format |
| 0073_20110626_192711_Keary.all.mb56.gz | 265.48MB | Simrad multibeam vendor format |
| 0074_20110626_194129_Keary.all.mb56.gz | 291.13MB | Simrad multibeam vendor format |
| 0075_20110626_195950_Keary.all.mb56.gz | 229.64MB | Simrad multibeam vendor format |
| 0076_20110626_201401_Keary.all.mb56.gz | 295.91MB | Simrad multibeam vendor format |
| 0077_20110627_070503_Keary.all.mb56.gz | 142.37MB | Simrad multibeam vendor format |
| 0078_20110627_071656_Keary.all.mb56.gz | 235.67MB | Simrad multibeam vendor format |
| 0079_20110627_072942_Keary.all.mb56.gz | 101.71MB | Simrad multibeam vendor format |
| 0080_20110627_073908_Keary.all.mb56.gz | 133.84MB | Simrad multibeam vendor format |
| 0081_20110627_074922_Keary.all.mb56.gz | 233.01MB | Simrad multibeam vendor format |
| 0082_20110627_080202_Keary.all.mb56.gz | 327.87MB | Simrad multibeam vendor format |
| 0083_20110627_081821_Keary.all.mb56.gz | 216.48MB | Simrad multibeam vendor format |
| 0084_20110627_083245_Keary.all.mb56.gz | 274.50MB | Simrad multibeam vendor format |
| 0085_20110627_084946_Keary.all.mb56.gz | 183.84MB | Simrad multibeam vendor format |
| 0086_20110627_090321_Keary.all.mb56.gz | 208.93MB | Simrad multibeam vendor format |
| 0087_20110627_091541_Keary.all.mb56.gz | 84.59MB | Simrad multibeam vendor format |
| 0087_20110627_092434_Keary.all.mb56.gz | 3.94MB | Simrad multibeam vendor format |
| 0087_20110627_092748_Keary.all.mb56.gz | 27.58MB | Simrad multibeam vendor format |
| 0087_20110627_093223_Keary.all.mb56.gz | 114.89MB | Simrad multibeam vendor format |
| 0088_20110627_094358_Keary.all.mb56.gz | 186.85MB | Simrad multibeam vendor format |
| 0089_20110627_095437_Keary.all.mb56.gz | 137.73MB | Simrad multibeam vendor format |
| 0090_20110627_100326_Keary.all.mb56.gz | 181.56MB | Simrad multibeam vendor format |
| 0091_20110627_102005_Keary.all.mb56.gz | 121.51MB | Simrad multibeam vendor format |
| 0092_20110627_102834_Keary.all.mb56.gz | 175.72MB | Simrad multibeam vendor format |
| 0093_20110627_104027_Keary.all.mb56.gz | 123.79MB | Simrad multibeam vendor format |
| 0094_20110627_105553_Keary.all.mb56.gz | 170.28MB | Simrad multibeam vendor format |
| 0095_20110627_110727_Keary.all.mb56.gz | 114.55MB | Simrad multibeam vendor format |
| 0096_20110627_111556_Keary.all.mb56.gz | 129.41MB | Simrad multibeam vendor format |
| 0097_20110627_112542_Keary.all.mb56.gz | 84.55MB | Simrad multibeam vendor format |
| 0098_20110627_113321_Keary.all.mb56.gz | 81.79MB | Simrad multibeam vendor format |
| 0099_20110627_130900_Keary.all.mb56.gz | 77.21MB | Simrad multibeam vendor format |
| 0100_20110627_131431_Keary.all.mb56.gz | 73.83MB | Simrad multibeam vendor format |
| 0101_20110627_132002_Keary.all.mb56.gz | 57.20MB | Simrad multibeam vendor format |
| 0102_20110627_132259_Keary.all.mb56.gz | 78.49MB | Simrad multibeam vendor format |
| 0103_20110627_132639_Keary.all.mb56.gz | 156.94MB | Simrad multibeam vendor format |
| 0103_20110627_133346_Keary.all.mb56.gz | 38.63MB | Simrad multibeam vendor format |
| 0104_20110627_133623_Keary.all.mb56.gz | 58.72MB | Simrad multibeam vendor format |
| 0104_20110627_133943_Keary.all.mb56.gz | 7.10MB | Simrad multibeam vendor format |
| 0105_20110627_134154_Keary.all.mb56.gz | 60.46MB | Simrad multibeam vendor format |
| 0106_20110627_134811_Keary.all.mb56.gz | 19.89MB | Simrad multibeam vendor format |
| 0107_20110627_135138_Keary.all.mb56.gz | 44.54MB | Simrad multibeam vendor format |
| 0108_20110627_140600_Keary.all.mb56.gz | 31.43MB | Simrad multibeam vendor format |
| 0109_20110627_141028_Keary.all.mb56.gz | 35.59MB | Simrad multibeam vendor format |
| 0110_20110627_141901_Keary.all.mb56.gz | 159.96MB | Simrad multibeam vendor format |
| 0111_20110627_143112_Keary.all.mb56.gz | 147.86MB | Simrad multibeam vendor format |
| 0112_20110627_144327_Keary.all.mb56.gz | 301.07MB | Simrad multibeam vendor format |
| 0114_20110627_150745_Keary.all.mb56.gz | 31.05MB | Simrad multibeam vendor format |
| 0114_20110627_151146_Keary.all.mb56.gz | 532.55MB | Simrad multibeam vendor format |
| 0115_20110627_155042_Keary.all.mb56.gz | 610.86MB | Simrad multibeam vendor format |
| 0116_20110627_163019_Keary.all.mb56.gz | 542.28MB | Simrad multibeam vendor format |
| 0117_20110627_170857_Keary.all.mb56.gz | 631.08MB | Simrad multibeam vendor format |
| 0118_20110627_174930_Keary.all.mb56.gz | 524.52MB | Simrad multibeam vendor format |
| 0119_20110627_182614_Keary.all.mb56.gz | 570.70MB | Simrad multibeam vendor format |
| 0120_20110628_061143_Keary.all.mb56.gz | 672.63MB | Simrad multibeam vendor format |
| 0121_20110628_065054_Keary.all.mb56.gz | 634.71MB | Simrad multibeam vendor format |
| 0122_20110628_072603_Keary.all.mb56.gz | 720.50MB | Simrad multibeam vendor format |
| 0123_20110628_081256_Keary.all.mb56.gz | 676.79MB | Simrad multibeam vendor format |
| 0124_20110628_084930_Keary.all.mb56.gz | 820.75MB | Simrad multibeam vendor format |
| 0125_20110628_093829_Keary.all.mb56.gz | 626.11MB | Simrad multibeam vendor format |
| 0126_20110628_101142_Keary.all.mb56.gz | 774.20MB | Simrad multibeam vendor format |
| 0127_20110628_105018_Keary.all.mb56.gz | 688.30MB | Simrad multibeam vendor format |
| 0128_20110628_112925_Keary.all.mb56.gz | 863.20MB | Simrad multibeam vendor format |
| 0129_20110628_120904_Keary.all.mb56.gz | 618.81MB | Simrad multibeam vendor format |
| 0130_20110628_123856_Keary.all.mb56.gz | 800.51MB | Simrad multibeam vendor format |
| 0131_20110628_131659_Keary.all.mb56.gz | 700.49MB | Simrad multibeam vendor format |
| 0132_20110628_134908_Keary.all.mb56.gz | 727.57MB | Simrad multibeam vendor format |
| 0133_20110628_143644_Keary.all.mb56.gz | 871.12MB | Simrad multibeam vendor format |
| 0134_20110628_151848_Keary.all.mb56.gz | 708.83MB | Simrad multibeam vendor format |
| 0135_20110628_154939_Keary.all.mb56.gz | 231.33MB | Simrad multibeam vendor format |
| 0136_20110628_160242_Keary.all.mb56.gz | 65.06MB | Simrad multibeam vendor format |
| 0137_20110628_160744_Keary.all.mb56.gz | 87.04MB | Simrad multibeam vendor format |
| 0138_20110628_161553_Keary.all.mb56.gz | 17.56MB | Simrad multibeam vendor format |
| 0139_20110628_163005_Keary.all.mb56.gz | 250.10MB | Simrad multibeam vendor format |
| 0140_20110628_164518_Keary.all.mb56.gz | 221.24MB | Simrad multibeam vendor format |
| 0141_20110628_171053_Keary.all.mb56.gz | 325.56MB | Simrad multibeam vendor format |
| 0142_20110628_172652_Keary.all.mb56.gz | 255.13MB | Simrad multibeam vendor format |
| 0143_20110628_173907_Keary.all.mb56.gz | 314.60MB | Simrad multibeam vendor format |
| 0144_20110628_175249_Keary.all.mb56.gz | 275.56MB | Simrad multibeam vendor format |
| 0145_20110628_180508_Keary.all.mb56.gz | 264.18MB | Simrad multibeam vendor format |
| 0146_20110628_183043_Keary.all.mb56.gz | 251.96MB | Simrad multibeam vendor format |
| 0147_20110628_184342_Keary.all.mb56.gz | 290.44MB | Simrad multibeam vendor format |
| 0148_20110629_085318_Keary.all.mb56.gz | 294.28MB | Simrad multibeam vendor format |
| 0149_20110629_090919_Keary.all.mb56.gz | 252.44MB | Simrad multibeam vendor format |
| 0150_20110629_092105_Keary.all.mb56.gz | 260.85MB | Simrad multibeam vendor format |
| 0151_20110629_094737_Keary.all.mb56.gz | 12.66MB | Simrad multibeam vendor format |
| 0152_20110629_095445_Keary.all.mb56.gz | 11.41MB | Simrad multibeam vendor format |
| 0153_20110629_095932_Keary.all.mb56.gz | 14.20MB | Simrad multibeam vendor format |
| 0154_20110629_103612_Keary.all.mb56.gz | 137.02MB | Simrad multibeam vendor format |
| 0155_20110629_110147_Keary.all.mb56.gz | 89.68MB | Simrad multibeam vendor format |
| 0156_20110629_111334_Keary.all.mb56.gz | 70.85MB | Simrad multibeam vendor format |
| 0157_20110629_113429_Keary.all.mb56.gz | 80.37MB | Simrad multibeam vendor format |
| 0158_20110629_104923_Keary.all.mb56.gz | 188.42MB | Simrad multibeam vendor format |
| 0159_20110629_114910_Keary.all.mb56.gz | 101.95MB | Simrad multibeam vendor format |

| Files | File Size | Description |
|---|---|---|
| KRY11_02_Multibeam.xml | NGDC created ISO metadata |